N1YZ Weather Reports


time (UTC)temp
C
wind
direction
speed
KPH
gust
KPH
rain 1hr
cm
rain 24hr
cm
rain mn
cm
humidity
%
barometer
mb
20260504024247 13 359 0.0 0.0 0.00 0.00 0.00 71 1038.1
20260504023744 13 359 0.0 0.0 0.00 0.00 0.00 73 1038.2
20260504023240 13 359 0.0 0.0 0.00 0.00 0.00 71 1038.1
20260504022736 13 359 0.0 0.0 0.00 0.00 0.00 69 1038.0
20260504022233 13 359 0.0 0.0 0.00 0.00 0.00 69 1037.9
20260504021730 13 359 0.0 0.0 0.00 0.00 0.00 70 1037.8
20260504021227 14 359 0.0 0.0 0.00 0.00 0.00 70 1037.6
20260504020724 14 359 0.0 0.0 0.00 0.00 0.00 72 1037.7
20260504020220 14 359 0.0 0.0 0.00 0.00 0.00 68 1037.9
20260504015717 14 359 0.0 0.0 0.00 0.00 0.00 70 1037.7
20260504015213 15 359 0.0 0.0 0.00 0.00 0.00 68 1037.8
20260504014709 15 359 0.0 0.0 0.00 0.00 0.00 67 1037.6
20260504014206 15 359 0.0 0.0 0.00 0.00 0.00 66 1037.7
20260504013704 15 359 0.0 0.0 0.00 0.00 0.00 65 1037.8
20260504013201 15 359 0.0 0.0 0.00 0.00 0.00 65 1037.6
20260504012657 15 359 0.0 0.0 0.00 0.00 0.00 66 1037.5
20260504012155 15 359 0.0 0.0 0.00 0.00 0.00 68 1037.2
20260504011652 15 359 0.0 0.0 0.00 0.00 0.00 64 1037.5
20260504011148 16 359 0.0 0.0 0.00 0.00 0.00 61 1037.3
20260504010644 16 359 0.0 0.0 0.00 0.00 0.00 59 1037.2
20260504010140 16 359 0.0 0.0 0.00 0.00 0.00 60 1037.3
20260504005637 16 359 0.0 0.0 0.00 0.00 0.00 60 1037.2
20260504005134 16 359 0.0 0.0 0.00 0.00 0.00 60 1037.3
20260504004632 16 359 0.0 0.0 0.00 0.00 0.00 57 1037.1
20260504004129 16 359 0.0 0.0 0.00 0.00 0.00 59 1037.3
20260504003625 17 359 0.0 0.0 0.00 0.00 0.00 58 1037.2
20260504003122 17 359 0.0 0.0 0.00 0.00 0.00 57 1037.2
20260504002619 17 359 0.0 0.0 0.00 0.00 0.00 54 1037.1
20260504002116 17 359 0.0 0.0 0.00 0.00 0.00 54 1037.1
20260504001614 17 358 0.0 0.0 0.00 0.00 0.00 52 1037.1
20260504001109 18 354 0.0 0.0 0.00 0.00 0.00 51 1037.1
20260504000607 18 354 0.0 0.0 0.00 0.00 0.00 49 1037.2
20260504000105 18 344 0.0 0.0 0.00 0.00 0.00 49 1036.7
20260503235603 18 21 0.0 0.0 0.00 0.00 0.00 51 1037.2
20260503235059 18 44 0.0 0.0 0.00 0.00 0.00 52 1037.0
20260503234557 18 6 0.0 0.0 0.00 0.00 0.00 50 1036.9
20260503234055 18 6 0.0 0.0 0.00 0.00 0.00 50 1036.9
20260503233551 18 5 0.0 0.0 0.00 0.00 0.00 48 1037.0
20260503233047 18 5 0.0 0.0 0.00 0.00 0.00 50 1036.8
20260503232544 18 5 0.0 0.0 0.00 0.00 0.00 51 1036.8
20260503232042 18 5 0.0 0.0 0.00 0.00 0.00 50 1037.1
20260503231540 19 6 0.0 0.0 0.00 0.00 0.00 47 1036.8
20260503231036 19 7 0.0 0.0 0.00 0.00 0.00 46 1036.9
20260503230532 19 6 0.0 0.0 0.00 0.00 0.00 46 1037.1
20260503230030 19 55 0.0 0.0 0.00 0.00 0.00 45 1037.1
20260503225527 20 42 0.0 0.0 0.00 0.00 0.00 46 1037.1
20260503225021 20 44 0.0 0.0 0.00 0.00 0.00 46 1037.2
20260503224520 20 45 0.0 0.0 0.00 0.00 0.00 47 1037.3
20260503224017 20 55 0.0 0.0 0.00 0.00 0.00 46 1037.1
20260503223515 20 30 0.0 0.0 0.00 0.00 0.00 45 1037.0
20260503223010 20 31 0.0 0.0 0.00 0.00 0.00 46 1036.9
20260503222509 20 74 0.0 0.0 0.00 0.00 0.00 43 1037.1
20260503222006 21 344 0.0 0.0 0.00 0.00 0.00 43 1037.0
20260503221504 21 342 0.0 0.0 0.00 0.00 0.00 40 1037.2
20260503221001 21 39 0.0 0.0 0.00 0.00 0.00 40 1037.2
20260503220457 22 347 0.0 0.0 0.00 0.00 0.00 36 1037.3
20260503215949 23 21 0.0 0.0 0.00 0.00 0.00 35 1037.2
20260503215446 23 30 0.0 0.0 0.00 0.00 0.00 40 1037.4
20260503214943 21 71 0.0 1.6 0.00 0.00 0.00 40 1037.4
20260503214441 22 29 0.0 0.0 0.00 0.00 0.00 39 1037.6
20260503213937 21 49 0.0 0.0 0.00 0.00 0.00 42 1037.6
20260503213436 21 94 0.0 0.0 0.00 0.00 0.00 40 1037.5
20260503212932 22 187 1.6 3.2 0.00 0.00 0.00 39 1037.4
20260503212430 22 182 3.2 3.2 0.00 0.00 0.00 38 1037.4
20260503211927 22 38 0.0 0.0 0.00 0.00 0.00 44 1037.6
20260503211424 22 166 0.0 0.0 0.00 0.00 0.00 38 1037.8
20260503210919 21 139 0.0 0.0 0.00 0.00 0.00 39 1037.7
20260503210416 21 39 0.0 0.0 0.00 0.00 0.00 40 1037.9
20260503205911 21 137 1.6 1.6 0.00 0.00 0.00 40 1037.7
20260503205409 21 171 3.2 3.2 0.00 0.00 0.00 39 1038.0
20260503204904 21 43 0.0 0.0 0.00 0.00 0.00 40 1038.0
20260503204402 21 180 0.0 1.6 0.00 0.00 0.00 40 1037.8
20260503203859 21 28 0.0 0.0 0.00 0.00 0.00 44 1038.2
20260503203356 22 7 0.0 1.6 0.00 0.00 0.00 37 1038.1
20260503202853 22 52 0.0 0.0 0.00 0.00 0.00 39 1038.3
20260503202351 22 90 0.0 0.0 0.00 0.00 0.00 38 1038.5
20260503201849 21 38 0.0 0.0 0.00 0.00 0.00 39 1038.5
20260503201346 21 191 3.2 3.2 0.00 0.00 0.00 38 1038.5
20260503200844 21 177 3.2 3.2 0.00 0.00 0.00 41 1038.6
20260503200339 21 40 0.0 0.0 0.00 0.00 0.00 42 1038.8
20260503195837 22 33 0.0 0.0 0.00 0.00 0.00 41 1038.8
20260503195333 22 358 0.0 0.0 0.00 0.00 0.00 40 1038.8
20260503194830 22 47 0.0 0.0 0.00 0.00 0.00 44 1039.0
20260503194326 22 354 0.0 0.0 0.00 0.00 0.00 38 1039.1
20260503193823 22 33 0.0 0.0 0.00 0.00 0.00 37 1039.2
20260503193319 22 25 0.0 0.0 0.00 0.00 0.00 36 1039.3
20260503192815 22 12 0.0 1.6 0.00 0.00 0.00 39 1039.4
20260503192310 22 171 3.2 4.8 0.00 0.00 0.00 38 1039.2
20260503191807 21 178 3.2 3.2 0.00 0.00 0.00 37 1039.6
20260503191304 22 8 1.6 3.2 0.00 0.00 0.00 38 1039.5
20260503190801 22 135 0.0 0.0 0.00 0.00 0.00 37 1039.7
20260503190258 21 69 0.0 0.0 0.00 0.00 0.00 35 1039.9
20260503185754 22 193 1.6 3.2 0.00 0.00 0.00 35 1039.9
20260503185250 22 36 0.0 0.0 0.00 0.00 0.00 33 1039.9
20260503184745 22 20 0.0 0.0 0.00 0.00 0.00 38 1040.1
20260503184242 22 69 0.0 0.0 0.00 0.00 0.00 42 1040.0
20260503183737 22 40 0.0 0.0 0.00 0.00 0.00 39 1040.4
20260503183235 21 28 0.0 0.0 0.00 0.00 0.00 39 1040.4
20260503182733 21 21 0.0 1.6 0.00 0.00 0.00 35 1040.4
20260503182231 22 28 0.0 0.0 0.00 0.00 0.00 41 1040.4
20260503181722 21 348 1.6 1.6 0.00 0.00 0.00 39 1040.5
20260503181219 21 6 0.0 1.6 0.00 0.00 0.00 37 1040.7
20260503180715 21 183 3.2 4.8 0.00 0.00 0.00 39 1040.5
20260503180213 22 99 1.6 3.2 0.00 0.00 0.00 38 1040.5
20260503175710 21 100 1.6 3.2 0.00 0.00 0.00 37 1040.6
20260503175208 21 346 1.6 3.2 0.00 0.00 0.00 40 1040.6
20260503174703 21 63 1.6 1.6 0.00 0.00 0.00 41 1040.5
20260503174201 21 173 1.6 1.6 0.00 0.00 0.00 36 1040.9
20260503173656 21 332 0.0 0.0 0.00 0.00 0.00 37 1040.5
20260503173152 21 138 0.0 1.6 0.00 0.00 0.00 38 1040.9
20260503172649 21 161 3.2 3.2 0.00 0.00 0.00 39 1040.9
20260503172147 20 168 0.0 1.6 0.00 0.00 0.00 42 1041.0
20260503171643 20 6 0.0 0.0 0.00 0.00 0.00 41 1041.2
20260503171141 20 181 1.6 3.2 0.00 0.00 0.00 38 1040.9
20260503170637 20 154 0.0 3.2 0.00 0.00 0.00 36 1041.2
20260503170135 20 9 0.0 0.0 0.00 0.00 0.00 40 1041.3
20260503150526 17 221 0.0 0.0 0.00 0.00 0.00 52 1041.6
20260503131419 10 12 0.0 0.0 0.00 0.00 0.00 85 1041.3
20260503130915 10 40 0.0 0.0 0.00 0.00 0.00 85 1041.3
20260503130413 10 168 0.0 0.0 0.00 0.00 0.00 86 1041.4
20260503110812 6 357 0.0 0.0 0.00 0.00 0.00 95 1040.1
20260503110309 6 357 0.0 0.0 0.00 0.00 0.00 94 1040.0
20260503100235 7 356 0.0 0.0 0.00 0.00 0.00 91 1039.4
20260503090154 8 356 0.0 0.0 0.00 0.00 0.00 88 1039.2
20260503081624 9 355 0.0 0.0 0.00 0.00 0.00 81 1039.1
20260503081121 10 355 0.0 0.0 0.00 0.00 0.00 82 1038.9
20260503080617 10 355 0.0 0.0 0.00 0.00 0.00 81 1039.0
20260503080114 10 355 0.0 0.0 0.00 0.00 0.00 81 1039.0
20260503072551 10 354 0.0 0.0 0.00 0.00 0.00 81 1038.8
20260503072048 10 354 0.0 0.0 0.00 0.00 0.00 82 1038.6
20260503071544 10 354 0.0 0.0 0.00 0.00 0.00 83 1038.4
20260503071042 10 354 0.0 0.0 0.00 0.00 0.00 84 1038.7
20260503070538 10 354 0.0 0.0 0.00 0.00 0.00 84 1038.5
20260503054951 9 1 0.0 0.0 0.00 0.00 0.00 86 1038.2
20260503054447 10 1 0.0 0.0 0.00 0.00 0.00 85 1038.3
20260503053945 10 1 0.0 0.0 0.00 0.00 0.00 84 1038.2
20260503053443 10 1 0.0 0.0 0.00 0.00 0.00 82 1038.4
20260503052939 10 1 0.0 0.0 0.00 0.00 0.00 84 1038.2
20260503052437 10 1 0.0 0.0 0.00 0.00 0.00 84 1038.1
20260503051933 10 1 0.0 0.0 0.00 0.00 0.00 84 1037.9
20260503051429 10 1 0.0 0.0 0.00 0.00 0.00 84 1037.9
20260503050926 10 1 0.0 0.0 0.00 0.00 0.00 84 1037.5
20260503050422 10 1 0.0 0.0 0.00 0.00 0.00 82 1037.8
20260503045920 10 1 0.0 0.0 0.00 0.05 0.05 82 1037.7
20260503045417 10 1 0.0 0.0 0.00 0.05 0.05 82 1037.6
20260503044914 10 1 0.0 0.0 0.00 0.05 0.05 81 1037.6
20260503044411 10 1 0.0 0.0 0.00 0.05 0.05 81 1037.7
20260503043908 10 1 0.0 0.0 0.00 0.05 0.05 81 1037.6
20260503043405 10 1 0.0 0.0 0.00 0.05 0.05 81 1037.6
20260503042901 11 1 0.0 0.0 0.00 0.05 0.05 82 1037.6
20260503042358 11 1 0.0 0.0 0.00 0.05 0.05 81 1037.4
20260503041854 11 1 0.0 0.0 0.00 0.05 0.05 80 1037.1
20260503041351 11 1 0.0 0.0 0.00 0.05 0.05 80 1037.3
20260503040849 11 1 0.0 0.0 0.00 0.05 0.05 79 1037.3
20260503040346 11 1 0.0 0.0 0.00 0.05 0.05 76 1037.3
20260503035843 11 1 0.0 0.0 0.00 0.05 0.05 77 1037.3
20260503035340 11 1 0.0 0.0 0.00 0.05 0.05 77 1037.2
20260503034837 11 1 0.0 0.0 0.00 0.05 0.05 77 1037.3
20260503034335 11 1 0.0 0.0 0.00 0.05 0.05 77 1037.4
20260503033832 11 1 0.0 0.0 0.00 0.05 0.05 76 1037.2
20260503033329 11 1 0.0 0.0 0.00 0.05 0.05 75 1037.2
20260503032827 11 1 0.0 0.0 0.00 0.05 0.05 72 1037.3
20260503032326 11 1 0.0 0.0 0.00 0.05 0.05 74 1037.4
20260503031823 12 1 0.0 0.0 0.00 0.05 0.05 73 1037.2
20260503031320 12 1 0.0 0.0 0.00 0.05 0.05 72 1037.4
20260503030816 12 1 0.0 0.0 0.00 0.05 0.05 70 1037.3
20260503030313 12 1 0.0 0.0 0.00 0.05 0.05 69 1037.2
20260503025810 12 1 0.0 0.0 0.00 0.05 0.05 69 1037.3
20260503025308 12 1 0.0 0.0 0.00 0.05 0.05 69 1037.1
20260503024804 12 1 0.0 0.0 0.00 0.05 0.05 69 1037.2